Precipitable_Water
0.32 0.26 0.23 0.23 0.26 0.28 0.33 0.40 0.45 0.48 0.48 0.53 0.50 0.50 0.49 0.49 0.52 0.59 0.64 0.68 0.71 0.67 0.63 0.66 0.68 0.71 0.77 0.84 0.91 0.94 0.94 0.89 0.88 0.85 0.87 0.95 1.00 1.02 1.00 0.98 1.04 1.08 1.09 1.18 1.24 1.28 1.29 1.29 1.31 1.34 1.37 1.39 1.39 1.38 1.38 1.40 1.41 1.41 1.39 1.39 1.38 1.45 1.47 1.41 1.37 1.36 1.32 1.28 1.33 1.38 1.38 1.34 1.40 1.40 1.46 1.49 1.55 1.54 1.52 1.55 1.56 1.51 1.46 1.41 1.32 1.22
0.28 0.23 0.22 0.26 0.30 0.32 0.34 0.41 0.46 0.45 0.45 0.46 0.50 0.48 0.49 0.50 0.48 0.56 0.60 0.66 0.70 0.63 0.66 0.70 0.68 0.70 0.74 0.81 0.88 0.95 0.95 0.92 0.88 0.86 0.84 0.88 0.93 0.97 0.98 0.99 1.04 1.10 1.17 1.19 1.20 1.22 1.24 1.27 1.30 1.32 1.35 1.37 1.29 1.31 1.34 1.33 1.36 1.38 1.40 1.36 1.38 1.40 1.37 1.34 1.32 1.32 1.36 1.39 1.36 1.29 1.26 1.26 1.26 1.26 1.24 1.21 1.25 1.26 1.32 1.33 1.33 1.28 1.25 1.20 1.12 1.12
0.22 0.19 0.22 0.28 0.33 0.36 0.38 0.40 0.42 0.41 0.41 0.44 0.48 0.49 0.48 0.50 0.53 0.60 0.63 0.65 0.65 0.62 0.63 0.71 0.65 0.68 0.75 0.80 0.85 0.87 0.89 0.93 0.97 0.89 0.85 0.87 0.88 0.92 0.95 1.00 1.05 1.08 1.08 1.11 1.14 1.18 1.21 1.26 1.29 1.29 1.33 1.34 1.32 1.31 1.30 1.33 1.35 1.35 1.34 1.34 1.34 1.33 1.30 1.32 1.36 1.36 1.27 1.29 1.27 1.22 1.19 1.14 1.13 1.19 1.19 1.17 1.19 1.20 1.18 1.19 1.17 1.18 1.20 1.16 1.13 1.16
0.18 0.18 0.24 0.30 0.34 0.35 0.38 0.40 0.39 0.39 0.41 0.41 0.48 0.47 0.44 0.52 0.49 0.47 0.57 0.61 0.63 0.59 0.61 0.67 0.61 0.67 0.77 0.81 0.82 0.85 0.88 0.91 1.00 1.00 0.99 1.00 0.96 0.94 0.91 0.95 0.99 1.02 1.06 1.03 1.07 1.13 1.19 1.26 1.30 1.33 1.31 1.32 1.33 1.32 1.32 1.33 1.31 1.32 1.30 1.28 1.28 1.29 1.30 1.30 1.31 1.21 1.17 1.19 1.21 1.21 1.18 1.18 1.10 1.08 1.16 1.18 1.20 1.18 1.18 1.17 1.22 1.23 1.24 1.22 1.18 1.15
0.19 0.20 0.30 0.33 0.34 0.34 0.35 0.38 0.37 0.35 0.34 0.38 0.40 0.49 0.48 0.49 0.51 0.50 0.53 0.59 0.64 0.66 0.67 0.66 0.62 0.64 0.70 0.67 0.72 0.81 0.90 0.91 0.97 1.03 1.04 1.08 1.08 1.07 1.09 1.03 0.99 0.98 1.01 1.04 1.07 1.13 1.19 1.23 1.27 1.29 1.33 1.37 1.33 1.33 1.31 1.29 1.28 1.25 1.23 1.24 1.25 1.24 1.22 1.21 1.18 1.16 1.16 1.15 1.12 1.16 1.19 1.20 1.13 1.04 0.98 0.99 0.99 1.05 1.13 1.15 1.12 1.16 1.23 1.24 1.14 1.07
0.20 0.24 0.33 0.34 0.33 0.34 0.36 0.35 0.34 0.34 0.32 0.33 0.36 0.40 0.49 0.52 0.52 0.54 0.58 0.57 0.55 0.57 0.64 0.59 0.50 0.51 0.64 0.66 0.67 0.75 0.82 0.84 0.94 0.94 0.98 1.03 1.07 1.10 1.10 1.09 1.08 1.05 1.06 1.04 1.05 1.08 1.15 1.21 1.27 1.32 1.36 1.35 1.35 1.34 1.34 1.31 1.27 1.24 1.22 1.25 1.21 1.18 1.14 1.10 1.13 1.15 1.12 1.07 1.03 1.01 0.95 0.88 0.86 0.78 0.78 0.77 0.79 0.86 0.89 0.87 0.98 1.04 1.12 1.11 1.03 1.07
0.20 0.24 0.29 0.32 0.32 0.32 0.35 0.34 0.34 0.36 0.33 0.32 0.33 0.37 0.38 0.41 0.41 0.47 0.54 0.55 0.48 0.43 0.57 0.63 0.42 0.43 0.62 0.62 0.67 0.71 0.75 0.78 0.88 0.88 0.94 1.00 1.04 1.09 1.11 1.14 1.14 1.09 1.08 1.13 1.13 1.15 1.14 1.19 1.21 1.25 1.28 1.32 1.30 1.33 1.35 1.30 1.25 1.23 1.22 1.20 1.14 1.07 1.08 1.11 1.12 1.13 1.12 1.08 1.05 0.99 0.89 0.85 0.77 0.74 0.78 0.85 0.91 0.90 0.92 0.93 0.94 0.96 0.98 0.96 0.94 0.95
0.21 0.23 0.26 0.30 0.32 0.32 0.31 0.31 0.35 0.36 0.34 0.31 0.37 0.37 0.38 0.37 0.38 0.44 0.50 0.52 0.48 0.53 0.60 0.62 0.55 0.43 0.48 0.57 0.68 0.72 0.74 0.76 0.78 0.84 0.91 0.96 1.00 1.05 1.10 1.14 1.15 1.15 1.13 1.09 1.12 1.15 1.16 1.17 1.17 1.16 1.25 1.29 1.30 1.32 1.30 1.27 1.24 1.20 1.17 1.14 1.11 1.10 1.10 1.12 1.15 1.15 1.16 1.07 1.03 0.94 0.87 0.83 0.75 0.70 0.71 0.77 0.81 0.85 0.85 0.82 0.81 0.80 0.83 0.85 0.82 0.78
0.21 0.21 0.23 0.26 0.29 0.28 0.24 0.30 0.37 0.37 0.34 0.33 0.37 0.37 0.37 0.37 0.35 0.38 0.45 0.46 0.46 0.46 0.48 0.55 0.61 0.47 0.45 0.55 0.70 0.73 0.67 0.71 0.71 0.76 0.83 0.90 0.97 1.01 1.06 1.13 1.17 1.19 1.20 1.17 1.13 1.12 1.14 1.13 1.16 1.20 1.23 1.30 1.34 1.32 1.24 1.23 1.21 1.19 1.16 1.13 1.13 1.12 1.13 1.16 1.19 1.20 1.19 1.13 1.01 0.93 0.87 0.80 0.77 0.76 0.74 0.77 0.77 0.71 0.69 0.62 0.70 0.73 0.79 0.82 0.83 0.80
0.22 0.22 0.23 0.27 0.26 0.23 0.24 0.32 0.37 0.36 0.31 0.35 0.36 0.38 0.37 0.36 0.35 0.39 0.40 0.42 0.45 0.43 0.40 0.47 0.54 0.42 0.44 0.57 0.61 0.70 0.66 0.67 0.70 0.74 0.79 0.87 0.93 0.97 1.01 1.07 1.16 1.22 1.23 1.26 1.21 1.17 1.18 1.19 1.19 1.23 1.28 1.30 1.32 1.32 1.27 1.25 1.25 1.20 1.16 1.12 1.12 1.13 1.17 1.20 1.22 1.23 1.21 1.13 1.07 0.98 0.91 0.83 0.81 0.80 0.77 0.74 0.71 0.68 0.69 0.67 0.72 0.75 0.76 0.78 0.76 0.81
0.21 0.25 0.26 0.25 0.24 0.24 0.27 0.33 0.36 0.36 0.36 0.38 0.36 0.34 0.34 0.32 0.32 0.40 0.41 0.41 0.39 0.34 0.35 0.46 0.52 0.46 0.37 0.50 0.55 0.56 0.57 0.62 0.68 0.75 0.82 0.89 0.94 0.97 1.01 1.05 1.12 1.17 1.22 1.25 1.27 1.25 1.22 1.23 1.23 1.27 1.24 1.26 1.32 1.32 1.28 1.24 1.23 1.22 1.19 1.15 1.14 1.17 1.22 1.26 1.25 1.24 1.17 1.14 1.09 0.99 0.92 0.87 0.82 0.82 0.77 0.73 0.71 0.71 0.71 0.69 0.71 0.71 0.70 0.70 0.72 0.80
0.19 0.22 0.23 0.23 0.25 0.26 0.29 0.32 0.34 0.33 0.32 0.32 0.31 0.30 0.29 0.28 0.30 0.31 0.35 0.39 0.29 0.26 0.34 0.44 0.44 0.45 0.31 0.42 0.58 0.62 0.62 0.63 0.67 0.67 0.72 0.80 0.85 0.89 0.95 1.02 1.08 1.13 1.18 1.25 1.29 1.27 1.25 1.24 1.23 1.25 1.22 1.25 1.29 1.30 1.27 1.23 1.22 1.23 1.21 1.20 1.17 1.22 1.25 1.26 1.27 1.24 1.20 1.18 1.10 1.02 0.95 0.87 0.84 0.82 0.80 0.78 0.73 0.69 0.67 0.68 0.68 0.70 0.70 0.71 0.75 0.77
0.17 0.18 0.22 0.26 0.26 0.26 0.28 0.28 0.30 0.31 0.31 0.31 0.30 0.27 0.23 0.23 0.23 0.22 0.25 0.26 0.28 0.25 0.30 0.37 0.40 0.40 0.36 0.39 0.49 0.56 0.58 0.63 0.67 0.69 0.70 0.75 0.81 0.87 0.94 0.97 1.01 1.05 1.13 1.21 1.27 1.28 1.24 1.18 1.17 1.18 1.19 1.24 1.27 1.24 1.25 1.24 1.24 1.24 1.25 1.23 1.19 1.19 1.25 1.26 1.26 1.20 1.18 1.14 1.07 1.01 0.94 0.87 0.85 0.86 0.88 0.82 0.74 0.74 0.70 0.73 0.76 0.77 0.75 0.76 0.70 0.73
0.15 0.19 0.21 0.24 0.29 0.31 0.30 0.24 0.27 0.27 0.29 0.29 0.28 0.26 0.22 0.20 0.21 0.20 0.22 0.25 0.25 0.27 0.32 0.29 0.37 0.30 0.36 0.38 0.47 0.49 0.55 0.62 0.65 0.70 0.73 0.76 0.83 0.88 0.91 0.95 1.00 1.04 1.09 1.15 1.21 1.21 1.18 1.17 1.18 1.21 1.22 1.23 1.25 1.25 1.26 1.26 1.26 1.27 1.27 1.27 1.21 1.18 1.23 1.25 1.23 1.18 1.13 1.09 1.06 0.98 0.94 0.92 0.89 0.87 0.86 0.85 0.80 0.84 0.85 0.83 0.82 0.83 0.82 0.80 0.79 0.83
0.13 0.14 0.19 0.24 0.23 0.30 0.31 0.28 0.28 0.28 0.28 0.28 0.30 0.28 0.24 0.23 0.21 0.19 0.22 0.21 0.21 0.23 0.29 0.33 0.28 0.25 0.25 0.28 0.36 0.43 0.50 0.56 0.63 0.71 0.79 0.83 0.87 0.90 0.92 0.94 0.97 1.01 1.03 1.08 1.09 1.12 1.12 1.13 1.19 1.21 1.26 1.29 1.28 1.28 1.29 1.30 1.29 1.29 1.26 1.26 1.23 1.21 1.22 1.20 1.16 1.14 1.10 1.07 1.04 0.97 0.95 0.94 0.97 0.91 0.86 0.86 0.86 0.91 0.92 0.91 0.87 0.86 0.86 0.84 0.87 0.87
0.15 0.17 0.22 0.27 0.27 0.30 0.27 0.31 0.32 0.31 0.28 0.27 0.29 0.30 0.25 0.23 0.27 0.21 0.25 0.24 0.24 0.25 0.24 0.27 0.26 0.32 0.30 0.38 0.42 0.46 0.52 0.57 0.65 0.72 0.77 0.80 0.87 0.93 0.93 0.93 0.94 0.97 1.00 1.05 1.06 1.09 1.13 1.13 1.17 1.21 1.28 1.31 1.31 1.32 1.33 1.33 1.32 1.29 1.27 1.25 1.23 1.20 1.19 1.18 1.14 1.11 1.10 1.05 1.02 0.98 0.95 0.94 0.99 0.96 0.91 0.89 0.92 0.96 1.02 1.02 0.98 0.91 0.86 0.87 0.91 0.95
0.17 0.17 0.24 0.28 0.30 0.28 0.28 0.31 0.31 0.31 0.22 0.26 0.26 0.23 0.24 0.31 0.29 0.25 0.28 0.31 0.31 0.27 0.25 0.31 0.28 0.34 0.44 0.40 0.45 0.48 0.52 0.55 0.63 0.68 0.71 0.76 0.83 0.87 0.86 0.89 0.91 0.94 0.96 0.98 0.99 1.03 1.05 1.11 1.15 1.19 1.26 1.32 1.35 1.35 1.34 1.36 1.35 1.29 1.28 1.27 1.25 1.26 1.24 1.19 1.15 1.11 1.11 1.05 0.98 0.99 0.98 0.95 0.96 0.95 0.90 0.88 0.92 1.00 1.07 1.08 1.02 0.94 0.91 0.92 0.96 0.98
0.18 0.16 0.24 0.25 0.25 0.29 0.31 0.31 0.29 0.29 0.29 0.28 0.23 0.25 0.29 0.33 0.31 0.26 0.23 0.28 0.25 0.24 0.26 0.28 0.25 0.30 0.31 0.29 0.44 0.47 0.50 0.55 0.60 0.65 0.69 0.75 0.79 0.79 0.81 0.85 0.89 0.91 0.93 0.94 0.95 0.96 0.97 0.99 1.04 1.12 1.23 1.32 1.38 1.39 1.39 1.40 1.42 1.39 1.35 1.31 1.28 1.28 1.25 1.25 1.22 1.18 1.13 1.04 0.96 0.97 0.99 0.98 0.97 0.94 0.93 0.92 0.94 1.04 1.11 1.08 1.02 0.99 0.97 0.94 1.00 1.01
0.23 0.17 0.22 0.25 0.27 0.30 0.31 0.29 0.26 0.27 0.29 0.26 0.26 0.30 0.22 0.21 0.20 0.24 0.25 0.21 0.22 0.23 0.25 0.29 0.31 0.32 0.33 0.34 0.41 0.43 0.46 0.51 0.57 0.63 0.68 0.71 0.74 0.76 0.78 0.81 0.88 0.90 0.92 0.94 0.96 0.99 0.99 0.99 1.05 1.14 1.19 1.29 1.38 1.44 1.45 1.49 1.52 1.48 1.43 1.40 1.37 1.31 1.30 1.26 1.25 1.24 1.18 1.09 1.00 0.97 0.97 0.98 0.99 0.98 0.96 0.96 0.97 1.04 1.10 1.10 1.07 1.04 1.00 1.00 1.01 1.02
0.25 0.18 0.19 0.26 0.26 0.28 0.29 0.26 0.20 0.22 0.26 0.28 0.30 0.26 0.26 0.26 0.23 0.22 0.24 0.27 0.27 0.23 0.23 0.23 0.28 0.27 0.38 0.38 0.41 0.44 0.48 0.51 0.57 0.62 0.65 0.68 0.70 0.71 0.74 0.79 0.84 0.88 0.90 0.91 0.93 0.94 0.96 0.98 1.01 1.07 1.16 1.24 1.33 1.40 1.46 1.49 1.52 1.48 1.46 1.43 1.42 1.42 1.40 1.37 1.32 1.29 1.20 1.16 1.07 1.00 1.01 1.02 1.03 1.01 0.99 1.00 0.98 0.99 1.09 1.16 1.14 1.09 1.02 0.99 1.02 1.00
0.24 0.24 0.18 0.23 0.27 0.28 0.23 0.24 0.21 0.23 0.22 0.23 0.25 0.26 0.27 0.26 0.31 0.27 0.30 0.28 0.25 0.23 0.23 0.23 0.24 0.29 0.37 0.47 0.46 0.47 0.50 0.54 0.55 0.59 0.65 0.67 0.68 0.72 0.77 0.80 0.82 0.85 0.88 0.90 0.89 0.91 0.96 1.00 1.05 1.09 1.16 1.22 1.30 1.37 1.41 1.42 1.41 1.41 1.44 1.43 1.45 1.43 1.42 1.40 1.40 1.38 1.30 1.22 1.12 1.05 1.02 1.03 1.05 1.04 1.05 1.05 1.02 1.01 1.10 1.18 1.18 1.12 1.05 1.04 0.99 0.99
0.24 0.24 0.20 0.23 0.25 0.24 0.24 0.27 0.26 0.27 0.27 0.25 0.24 0.23 0.25 0.25 0.24 0.22 0.22 0.30 0.29 0.25 0.24 0.24 0.23 0.31 0.41 0.50 0.49 0.51 0.57 0.60 0.62 0.63 0.61 0.64 0.69 0.73 0.78 0.82 0.84 0.85 0.89 0.88 0.87 0.90 0.94 1.01 1.04 1.10 1.17 1.22 1.26 1.32 1.35 1.39 1.40 1.40 1.40 1.42 1.46 1.51 1.49 1.45 1.47 1.45 1.41 1.30 1.16 1.08 1.05 1.05 1.08 1.08 1.11 1.08 1.05 1.04 1.11 1.15 1.18 1.15 1.10 1.01 0.97 0.98
0.26 0.26 0.23 0.22 0.23 0.24 0.27 0.29 0.31 0.33 0.31 0.28 0.27 0.25 0.27 0.28 0.30 0.27 0.23 0.25 0.28 0.29 0.31 0.30 0.26 0.30 0.45 0.49 0.47 0.49 0.57 0.61 0.63 0.63 0.63 0.67 0.69 0.72 0.77 0.82 0.84 0.86 0.87 0.85 0.86 0.91 0.95 0.98 1.01 1.05 1.11 1.17 1.20 1.24 1.30 1.37 1.39 1.39 1.41 1.45 1.48 1.48 1.49 1.52 1.51 1.51 1.44 1.35 1.23 1.13 1.10 1.09 1.10 1.13 1.15 1.11 1.07 1.05 1.10 1.15 1.21 1.19 1.10 1.01 0.96 0.97
0.28 0.24 0.22 0.23 0.25 0.27 0.29 0.32 0.34 0.36 0.33 0.28 0.28 0.29 0.30 0.28 0.29 0.28 0.27 0.30 0.29 0.31 0.28 0.30 0.25 0.33 0.47 0.54 0.54 0.55 0.58 0.59 0.59 0.61 0.62 0.65 0.68 0.70 0.70 0.75 0.80 0.84 0.85 0.86 0.90 0.89 0.91 0.99 1.05 1.04 1.07 1.11 1.16 1.20 1.25 1.31 1.36 1.40 1.42 1.44 1.46 1.45 1.49 1.54 1.56 1.51 1.46 1.41 1.31 1.23 1.15 1.11 1.12 1.14 1.17 1.14 1.11 1.09 1.14 1.20 1.24 1.21 1.11 1.00 0.97 0.93
0.21 0.23 0.23 0.21 0.21 0.23 0.27 0.31 0.33 0.36 0.33 0.29 0.29 0.31 0.32 0.32 0.31 0.32 0.31 0.33 0.26 0.30 0.30 0.28 0.25 0.31 0.46 0.56 0.54 0.55 0.55 0.55 0.56 0.60 0.61 0.61 0.64 0.67 0.70 0.73 0.79 0.84 0.85 0.85 0.85 0.86 0.92 0.95 0.96 1.00 1.04 1.06 1.10 1.16 1.23 1.29 1.34 1.36 1.36 1.39 1.40 1.43 1.49 1.53 1.56 1.53 1.52 1.49 1.38 1.30 1.17 1.11 1.13 1.15 1.17 1.19 1.20 1.19 1.22 1.24 1.22 1.20 1.10 1.03 0.98 0.95
0.19 0.22 0.21 0.19 0.18 0.18 0.19 0.20 0.23 0.27 0.28 0.31 0.32 0.33 0.33 0.31 0.30 0.30 0.27 0.29 0.24 0.30 0.33 0.30 0.31 0.38 0.47 0.53 0.52 0.51 0.51 0.52 0.55 0.57 0.60 0.62 0.63 0.66 0.70 0.75 0.80 0.83 0.84 0.83 0.81 0.83 0.83 0.89 0.96 0.98 1.00 1.05 1.09 1.12 1.18 1.25 1.32 1.37 1.38 1.38 1.41 1.41 1.46 1.51 1.54 1.53 1.48 1.50 1.47 1.40 1.24 1.16 1.17 1.19 1.21 1.23 1.25 1.26 1.27 1.25 1.21 1.19 1.14 1.07 0.97 0.94
0.20 0.22 0.23 0.22 0.21 0.21 0.23 0.27 0.30 0.32 0.30 0.28 0.30 0.32 0.32 0.32 0.32 0.32 0.32 0.29 0.25 0.30 0.31 0.34 0.35 0.39 0.42 0.45 0.47 0.48 0.49 0.49 0.50 0.53 0.55 0.59 0.63 0.68 0.71 0.73 0.75 0.76 0.78 0.80 0.80 0.80 0.84 0.89 0.92 0.95 0.99 1.04 1.07 1.11 1.16 1.20 1.27 1.36 1.41 1.41 1.41 1.43 1.46 1.49 1.51 1.53 1.51 1.49 1.47 1.44 1.31 1.26 1.25 1.26 1.26 1.27 1.25 1.29 1.30 1.26 1.25 1.23 1.15 1.08 0.95 0.93
0.23 0.21 0.24 0.24 0.26 0.27 0.28 0.31 0.33 0.33 0.30 0.30 0.30 0.31 0.33 0.32 0.31 0.30 0.29 0.29 0.33 0.32 0.29 0.35 0.38 0.34 0.38 0.42 0.45 0.46 0.47 0.49 0.51 0.53 0.55 0.58 0.62 0.65 0.66 0.69 0.72 0.75 0.77 0.80 0.80 0.81 0.83 0.86 0.90 0.94 0.98 1.02 1.07 1.12 1.16 1.20 1.24 1.28 1.35 1.38 1.41 1.45 1.49 1.52 1.49 1.50 1.52 1.55 1.51 1.45 1.41 1.39 1.39 1.35 1.31 1.32 1.33 1.32 1.33 1.30 1.26 1.21 1.15 1.02 0.93 0.93
0.24 0.20 0.25 0.26 0.26 0.27 0.29 0.31 0.35 0.34 0.34 0.34 0.33 0.32 0.31 0.31 0.31 0.28 0.29 0.31 0.35 0.31 0.28 0.34 0.37 0.34 0.38 0.41 0.44 0.44 0.45 0.47 0.50 0.51 0.54 0.59 0.62 0.64 0.66 0.67 0.69 0.70 0.73 0.76 0.78 0.81 0.85 0.87 0.91 0.93 0.98 1.04 1.08 1.11 1.15 1.19 1.24 1.29 1.32 1.36 1.44 1.50 1.51 1.56 1.56 1.55 1.55 1.58 1.65 1.64 1.55 1.51 1.49 1.44 1.37 1.37 1.42 1.36 1.27 1.21 1.20 1.18 1.09 0.98 0.95 0.96
0.28 0.22 0.25 0.27 0.28 0.30 0.32 0.34 0.36 0.34 0.34 0.35 0.34 0.34 0.34 0.32 0.31 0.31 0.31 0.33 0.33 0.31 0.31 0.34 0.37 0.35 0.39 0.42 0.44 0.45 0.47 0.48 0.52 0.56 0.60 0.60 0.60 0.63 0.65 0.66 0.67 0.68 0.70 0.72 0.76 0.81 0.86 0.89 0.91 0.93 0.97 1.03 1.10 1.15 1.19 1.22 1.24 1.26 1.25 1.30 1.42 1.51 1.62 1.70 1.69 1.67 1.64 1.62 1.65 1.60 1.54 1.58 1.50 1.49 1.47 1.45 1.39 1.30 1.21 1.18 1.19 1.15 1.04 0.96 0.95 0.96
0.28 0.26 0.26 0.27 0.28 0.30 0.34 0.37 0.37 0.36 0.37 0.35 0.36 0.36 0.35 0.35 0.34 0.33 0.33 0.35 0.34 0.33 0.33 0.34 0.35 0.34 0.39 0.42 0.45 0.51 0.55 0.57 0.58 0.57 0.57 0.59 0.61 0.62 0.63 0.64 0.66 0.67 0.70 0.73 0.77 0.83 0.90 0.94 0.94 0.94 0.99 1.06 1.12 1.15 1.17 1.23 1.32 1.37 1.37 1.35 1.35 1.46 1.61 1.70 1.68 1.67 1.63 1.68 1.68 1.61 1.58 1.49 1.51 1.49 1.49 1.48 1.39 1.25 1.18 1.16 1.16 1.09 0.99 0.95 0.96 0.96
0.34 0.29 0.31 0.30 0.28 0.30 0.34 0.37 0.38 0.37 0.35 0.36 0.36 0.37 0.36 0.36 0.36 0.39 0.37 0.40 0.36 0.35 0.37 0.39 0.36 0.34 0.39 0.46 0.49 0.54 0.56 0.56 0.55 0.57 0.58 0.60 0.62 0.62 0.61 0.64 0.68 0.72 0.75 0.79 0.83 0.88 0.93 0.98 1.02 1.07 1.10 1.14 1.18 1.22 1.27 1.34 1.38 1.39 1.38 1.38 1.37 1.40 1.48 1.55 1.62 1.66 1.66 1.60 1.60 1.58 1.52 1.51 1.51 1.52 1.52 1.46 1.34 1.24 1.19 1.16 1.11 1.02 0.96 0.95 0.95 0.97
0.40 0.32 0.28 0.30 0.29 0.30 0.33 0.36 0.37 0.37 0.35 0.32 0.32 0.36 0.40 0.41 0.43 0.47 0.48 0.48 0.43 0.42 0.39 0.36 0.37 0.41 0.44 0.51 0.47 0.52 0.55 0.56 0.58 0.60 0.61 0.63 0.66 0.66 0.66 0.67 0.72 0.78 0.83 0.89 0.94 0.99 1.03 1.04 1.03 1.04 1.07 1.11 1.18 1.24 1.34 1.43 1.45 1.44 1.43 1.42 1.49 1.59 1.72 1.77 1.75 1.69 1.68 1.70 1.69 1.66 1.61 1.63 1.60 1.58 1.50 1.42 1.33 1.27 1.21 1.13 1.05 0.99 0.96 0.94 0.96 0.98
0.46 0.36 0.31 0.33 0.28 0.31 0.35 0.35 0.36 0.33 0.28 0.31 0.47 0.49 0.46 0.42 0.41 0.42 0.45 0.46 0.48 0.46 0.44 0.45 0.44 0.48 0.48 0.54 0.54 0.54 0.56 0.58 0.62 0.68 0.71 0.70 0.69 0.69 0.70 0.72 0.74 0.75 0.77 0.78 0.80 0.82 0.84 0.87 0.87 0.86 0.88 0.95 1.08 1.25 1.39 1.44 1.38 1.35 1.40 1.49 1.58 1.57 1.55 1.59 1.62 1.58 1.59 1.68 1.69 1.67 1.62 1.52 1.56 1.53 1.42 1.37 1.31 1.23 1.17 1.08 1.00 0.98 0.98 0.98 1.00 0.99
0.44 0.43 0.35 0.35 0.30 0.31 0.33 0.33 0.30 0.27 0.30 0.45 0.53 0.53 0.53 0.52 0.49 0.48 0.51 0.52 0.50 0.49 0.49 0.48 0.50 0.49 0.52 0.55 0.63 0.66 0.67 0.68 0.70 0.70 0.71 0.71 0.70 0.68 0.68 0.71 0.73 0.73 0.73 0.73 0.75 0.77 0.80 0.85 0.94 1.00 1.04 1.08 1.12 1.18 1.26 1.31 1.33 1.38 1.48 1.56 1.60 1.68 1.72 1.76 1.76 1.71 1.64 1.63 1.67 1.61 1.55 1.56 1.63 1.53 1.43 1.33 1.24 1.17 1.09 1.02 0.98 0.99 1.01 1.01 1.00 1.01
0.45 0.42 0.40 0.38 0.37 0.36 0.32 0.31 0.25 0.30 0.43 0.51 0.52 0.55 0.59 0.58 0.56 0.54 0.53 0.54 0.54 0.53 0.52 0.50 0.54 0.57 0.56 0.55 0.61 0.67 0.70 0.74 0.77 0.77 0.75 0.75 0.72 0.71 0.71 0.73 0.75 0.73 0.70 0.72 0.73 0.77 0.79 0.87 0.93 0.96 0.98 1.03 1.03 1.06 1.11 1.16 1.26 1.28 1.32 1.43 1.49 1.55 1.62 1.69 1.69 1.70 1.73 1.72 1.74 1.68 1.64 1.64 1.53 1.42 1.30 1.19 1.15 1.09 1.02 0.98 0.97 0.97 1.01 1.02 1.05 1.10
0.51 0.47 0.46 0.39 0.43 0.32 0.34 0.32 0.31 0.43 0.43 0.45 0.45 0.48 0.50 0.49 0.51 0.49 0.45 0.52 0.60 0.61 0.57 0.56 0.57 0.60 0.61 0.61 0.61 0.62 0.66 0.70 0.71 0.72 0.77 0.74 0.73 0.74 0.74 0.74 0.74 0.73 0.74 0.79 0.83 0.87 0.91 0.94 0.95 1.02 1.06 1.05 1.05 1.03 1.08 1.16 1.21 1.23 1.27 1.32 1.37 1.43 1.58 1.59 1.58 1.57 1.55 1.55 1.58 1.55 1.54 1.51 1.44 1.38 1.21 1.12 1.07 1.01 0.97 0.96 0.98 1.00 1.05 1.07 1.10 1.12
0.57 0.47 0.49 0.43 0.40 0.43 0.35 0.34 0.35 0.33 0.30 0.43 0.50 0.58 0.56 0.54 0.54 0.55 0.51 0.52 0.60 0.64 0.65 0.59 0.57 0.58 0.60 0.63 0.63 0.65 0.65 0.61 0.58 0.63 0.71 0.72 0.72 0.72 0.74 0.75 0.79 0.85 0.88 0.96 1.02 1.03 1.05 1.06 1.06 1.09 1.02 1.02 1.06 1.12 1.17 1.20 1.21 1.21 1.21 1.25 1.33 1.43 1.52 1.50 1.44 1.42 1.44 1.42 1.42 1.40 1.42 1.45 1.38 1.27 1.15 1.07 1.02 1.00 0.99 0.98 1.01 1.04 1.12 1.11 1.13 1.14
0.64 0.58 0.52 0.45 0.43 0.41 0.38 0.34 0.33 0.31 0.38 0.51 0.53 0.55 0.59 0.61 0.58 0.57 0.45 0.47 0.61 0.67 0.67 0.63 0.59 0.59 0.59 0.59 0.62 0.63 0.60 0.55 0.57 0.63 0.73 0.75 0.73 0.74 0.77 0.85 0.89 0.94 0.99 1.02 1.02 1.03 1.06 1.07 1.03 1.03 1.05 1.05 1.04 1.12 1.15 1.17 1.17 1.17 1.19 1.23 1.25 1.31 1.34 1.32 1.32 1.36 1.38 1.38 1.40 1.40 1.40 1.35 1.29 1.22 1.14 1.07 1.05 1.04 1.02 1.02 1.04 1.11 1.19 1.21 1.21 1.21
0.58 0.55 0.51 0.45 0.44 0.44 0.40 0.37 0.36 0.40 0.43 0.56 0.62 0.62 0.63 0.63 0.62 0.50 0.35 0.46 0.63 0.68 0.70 0.68 0.63 0.63 0.63 0.64 0.65 0.62 0.57 0.53 0.57 0.64 0.75 0.78 0.80 0.86 0.86 0.89 0.94 0.98 1.03 1.08 1.10 1.09 1.09 1.10 1.06 1.02 0.99 0.98 1.03 1.12 1.14 1.16 1.16 1.14 1.18 1.22 1.24 1.21 1.19 1.23 1.26 1.31 1.37 1.38 1.36 1.34 1.32 1.27 1.24 1.20 1.13 1.10 1.13 1.16 1.13 1.12 1.13 1.17 1.22 1.26 1.26 1.25
0.52 0.55 0.52 0.45 0.44 0.45 0.41 0.39 0.42 0.46 0.61 0.64 0.63 0.65 0.68 0.64 0.56 0.40 0.36 0.56 0.74 0.75 0.72 0.70 0.71 0.70 0.68 0.67 0.67 0.61 0.66 0.67 0.71 0.78 0.81 0.82 0.84 0.90 0.97 0.99 1.01 1.01 0.99 1.02 1.03 1.10 1.04 1.02 0.99 0.96 0.97 1.04 1.09 1.12 1.13 1.15 1.14 1.13 1.15 1.17 1.18 1.17 1.20 1.24 1.28 1.33 1.37 1.34 1.30 1.29 1.27 1.26 1.25 1.21 1.17 1.18 1.21 1.26 1.25 1.24 1.23 1.25 1.27 1.26 1.28 1.28
0.52 0.55 0.55 0.53 0.46 0.43 0.44 0.39 0.41 0.52 0.72 0.71 0.70 0.66 0.68 0.55 0.43 0.44 0.65 0.78 0.79 0.78 0.79 0.78 0.75 0.78 0.76 0.74 0.74 0.75 0.77 0.80 0.82 0.86 0.86 0.85 0.85 0.88 0.90 0.91 0.92 0.93 0.98 1.03 1.04 1.02 1.01 1.02 1.02 1.03 1.05 1.10 1.10 1.10 1.10 1.12 1.12 1.14 1.15 1.14 1.13 1.18 1.26 1.29 1.33 1.37 1.36 1.30 1.25 1.24 1.26 1.31 1.35 1.34 1.32 1.31 1.33 1.35 1.33 1.32 1.30 1.29 1.29 1.30 1.26 1.23
0.55 0.49 0.49 0.48 0.53 0.51 0.48 0.42 0.40 0.35 0.59 0.74 0.69 0.63 0.72 0.50 0.66 0.75 0.80 0.82 0.83 0.79 0.76 0.76 0.76 0.78 0.79 0.77 0.79 0.80 0.83 0.85 0.85 0.85 0.88 0.89 0.90 0.90 0.92 0.93 0.92 0.91 0.95 0.98 1.02 1.08 1.05 1.01 1.02 1.03 1.05 1.10 1.10 1.11 1.12 1.14 1.13 1.15 1.16 1.13 1.16 1.25 1.31 1.35 1.38 1.39 1.33 1.28 1.25 1.27 1.33 1.37 1.37 1.38 1.42 1.46 1.50 1.48 1.44 1.41 1.36 1.32 1.29 1.22 1.17 1.20
0.69 0.52 0.52 0.56 0.63 0.45 0.43 0.41 0.44 0.62 0.72 0.80 0.69 0.59 0.74 0.76 0.85 0.87 0.81 0.76 0.84 0.81 0.76 0.74 0.76 0.79 0.81 0.80 0.80 0.81 0.84 0.84 0.87 0.90 0.91 0.94 0.95 0.97 0.97 0.98 0.99 0.99 1.00 1.03 1.05 1.08 1.11 1.09 1.10 1.12 1.15 1.13 1.14 1.14 1.18 1.19 1.15 1.14 1.13 1.14 1.22 1.23 1.28 1.31 1.33 1.32 1.29 1.28 1.30 1.34 1.39 1.40 1.42 1.47 1.55 1.60 1.61 1.52 1.45 1.39 1.34 1.33 1.23 1.17 1.17 1.23
0.72 0.63 0.61 0.52 0.69 0.59 0.54 0.61 0.73 0.80 0.82 0.83 0.80 0.83 0.86 0.89 0.91 0.90 0.86 0.83 0.80 0.80 0.83 0.79 0.82 0.87 0.91 0.89 0.87 0.84 0.85 0.93 0.92 0.94 0.91 0.94 0.98 0.98 0.98 0.98 0.98 0.97 0.97 0.98 1.01 1.10 1.14 1.13 1.11 1.10 1.10 1.13 1.14 1.18 1.21 1.23 1.18 1.17 1.16 1.21 1.25 1.22 1.21 1.23 1.25 1.26 1.28 1.32 1.36 1.38 1.39 1.41 1.41 1.38 1.36 1.33 1.27 1.22 1.25 1.30 1.30 1.22 1.17 1.12 1.16 1.13
0.83 0.83 0.79 0.67 0.68 0.77 0.81 0.82 0.87 0.84 0.82 0.82 0.82 0.88 0.87 0.89 0.93 0.92 0.89 0.85 0.87 0.89 0.90 0.86 0.88 0.89 0.92 0.94 0.90 0.94 0.95 0.97 0.97 0.98 0.99 0.98 0.99 1.01 1.03 1.03 1.04 1.03 1.02 1.02 1.04 1.09 1.10 1.10 1.08 1.05 1.02 1.08 1.15 1.20 1.23 1.25 1.25 1.19 1.19 1.27 1.30 1.30 1.29 1.29 1.28 1.31 1.35 1.37 1.42 1.51 1.54 1.46 1.42 1.39 1.36 1.32 1.32 1.29 1.28 1.27 1.21 1.12 1.10 1.10 1.09 1.04
0.83 0.83 0.75 0.64 0.75 0.62 0.58 0.78 0.78 0.79 0.84 0.86 0.84 0.86 0.88 0.91 0.93 0.95 0.94 0.94 0.96 0.98 0.99 1.02 1.00 0.95 0.94 0.97 0.96 0.97 0.97 1.00 0.95 0.98 0.99 0.99 0.99 0.99 0.99 0.96 0.98 0.99 0.98 0.97 1.03 1.05 1.05 1.04 1.01 1.01 1.02 1.04 1.15 1.21 1.25 1.27 1.29 1.27 1.32 1.30 1.33 1.34 1.33 1.36 1.50 1.53 1.53 1.44 1.32 1.33 1.33 1.30 1.34 1.34 1.30 1.23 1.20 1.22 1.22 1.17 1.10 1.05 1.02 1.05 1.04 1.02
0.67 0.86 0.73 0.71 0.69 0.62 0.65 0.76 0.81 0.83 0.84 0.89 0.89 0.87 0.86 0.88 0.91 0.94 0.97 0.96 0.96 0.95 0.94 0.94 0.95 0.98 1.01 0.94 0.94 0.89 0.90 0.91 0.87 0.85 0.86 0.86 0.87 0.88 0.89 0.91 0.92 0.95 1.01 1.03 1.01 1.00 1.00 1.01 1.01 1.02 1.03 1.06 1.15 1.19 1.20 1.23 1.28 1.35 1.37 1.37 1.34 1.36 1.35 1.28 1.27 1.25 1.27 1.27 1.26 1.21 1.19 1.16 1.17 1.14 1.11 1.11 1.11 1.09 1.07 1.04 1.01 0.98 0.98 0.99 0.99 0.95
0.77 0.82 0.65 0.74 0.68 0.75 0.80 0.81 0.80 0.81 0.83 0.85 0.87 0.90 0.98 0.98 0.94 0.92 0.92 0.93 0.92 0.90 0.90 0.90 0.90 0.90 0.94 0.96 0.96 0.90 0.86 0.87 0.88 0.82 0.78 0.78 0.78 0.80 0.83 0.87 0.90 0.91 0.95 0.95 0.99 1.00 0.97 0.99 1.01 1.04 1.06 1.10 1.18 1.19 1.19 1.29 1.41 1.47 1.41 1.40 1.42 1.34 1.29 1.28 1.30 1.28 1.25 1.23 1.16 1.08 1.09 1.11 1.07 1.03 1.01 1.00 0.99 0.99 0.98 0.96 0.97 0.96 0.98 1.02 1.01 0.99
0.71 0.66 0.76 0.70 0.62 0.62 0.62 0.70 0.78 0.63 0.64 0.75 0.81 0.88 0.96 1.02 0.99 0.93 0.92 0.91 0.91 0.90 0.89 0.87 0.86 0.87 0.89 0.91 0.94 0.94 0.88 0.86 0.87 0.83 0.79 0.77 0.76 0.77 0.81 0.85 0.89 0.90 0.93 1.00 1.03 1.04 1.04 1.07 1.09 1.08 1.10 1.14 1.19 1.21 1.24 1.33 1.37 1.36 1.32 1.36 1.38 1.36 1.34 1.36 1.27 1.24 1.25 1.20 1.13 1.06 1.03 1.02 1.00 1.00 0.97 0.94 0.90 0.90 0.92 0.98 0.99 0.98 0.94 0.94 0.99 1.00
0.66 0.70 0.69 0.61 0.58 0.57 0.70 0.79 0.84 0.80 0.79 0.82 0.85 0.88 0.89 0.91 0.95 0.97 0.93 0.89 0.89 0.92 0.94 0.92 0.89 0.91 0.83 0.84 0.86 0.83 0.81 0.82 0.83 0.86 0.81 0.79 0.79 0.81 0.82 0.84 0.87 0.91 0.95 1.01 1.01 1.02 1.05 1.08 1.12 1.14 1.15 1.18 1.24 1.30 1.34 1.36 1.41 1.44 1.46 1.45 1.45 1.45 1.37 1.29 1.22 1.16 1.14 1.10 1.01 0.99 0.99 1.00 0.98 0.96 0.90 0.86 0.86 0.85 0.84 0.86 0.92 0.95 0.97 0.97 0.97 0.97
Wind_Speed
18 18 16 15 16 16 14 14 14 12 11 11 10 10 12 12 11 12 12 12 11 9 10 10 9 9 9 8 7 8 8 8 8 8 8 9 9 9 9 9 10 9 9 8 9 10 10 10 10 10 10 9 9 9 9 8 8 8 8 7 7 6 6 5 5 5 5 5 5 5 5 6 6 7 7 8 8 8 8 9 9 9 9 9 9 10
19 19 18 17 18 17 15 15 14 12 10 11 11 11 12 12 11 11 11 12 11 8 10 10 10 10 10 9 8 8 8 8 9 9 8 9 9 9 10 10 11 9 8 8 9 10 10 10 10 10 10 10 9 9 9 9 8 8 8 7 7 6 6 6 5 5 5 4 4 5 5 6 6 6 7 7 8 8 8 8 8 9 9 9 10 10
19 20 20 19 19 16 16 16 15 13 11 11 12 12 12 11 10 10 10 12 11 9 10 11 10 10 10 9 9 10 9 8 10 11 10 10 10 9 10 11 11 10 9 9 10 10 10 10 11 10 10 11 10 10 10 9 9 8 7 7 7 6 6 6 5 5 4 4 4 4 5 5 6 6 7 7 7 7 8 8 8 9 9 9 10 11
20 19 20 20 19 17 17 17 14 13 12 12 13 14 14 12 11 11 12 13 13 10 11 11 10 9 9 9 10 11 11 9 11 12 11 11 11 11 11 12 12 12 11 11 10 10 10 10 11 11 11 11 11 10 9 9 9 8 8 7 7 7 6 5 5 4 3 3 3 4 5 5 6 6 7 7 7 7 7 8 8 8 9 9 10 11
21 20 19 21 21 19 18 18 15 14 14 12 14 16 15 14 15 14 13 13 12 10 12 11 9 10 11 11 10 10 11 10 11 12 11 12 12 12 12 13 13 12 12 12 12 11 11 11 11 11 11 11 11 10 10 10 9 9 8 8 8 7 6 5 5 3 2 2 3 4 4 5 5 6 6 6 6 6 7 7 8 8 8 9 10 10
22 21 19 20 22 21 20 19 17 15 14 13 14 16 16 16 17 16 14 14 12 11 14 13 9 11 13 13 12 11 11 11 11 12 12 12 12 12 12 13 13 13 13 13 13 12 12 12 12 12 12 12 11 11 11 10 10 9 9 8 8 7 6 6 5 4 3 3 4 4 4 5 5 5 6 5 5 6 6 7 8 8 9 9 10 10
22 22 20 21 23 23 21 20 18 16 15 14 14 15 16 15 15 16 18 17 14 14 16 16 12 11 13 15 14 12 11 11 11 12 12 12 12 12 13 14 14 14 13 13 13 13 13 13 13 13 13 12 12 12 11 11 11 10 10 9 9 8 7 6 6 5 4 4 4 5 5 5 5 5 6 6 6 7 7 8 9 9 9 10 10 11
23 23 22 21 22 23 22 20 18 16 15 15 14 14 15 13 12 15 19 19 16 14 15 16 12 10 14 16 15 13 12 12 13 13 13 13 13 13 13 14 15 15 15 14 14 14 14 14 14 14 14 13 13 12 12 11 12 11 11 10 10 9 8 8 7 6 5 5 5 5 5 6 6 6 6 7 8 8 9 9 9 10 10 11 12 12
23 24 24 23 22 21 21 21 19 16 16 16 14 14 14 12 12 14 18 19 15 12 14 16 12 10 13 15 13 14 14 14 14 14 14 14 14 14 14 15 16 16 16 16 15 15 15 15 15 15 14 14 14 13 13 13 12 12 12 11 11 10 10 9 8 7 6 6 5 6 6 7 7 7 7 8 8 9 9 9 10 10 11 12 12 13
23 24 24 24 23 21 21 21 20 17 16 15 15 14 13 12 11 13 16 17 14 12 15 17 14 11 12 14 14 15 16 16 15 14 14 14 15 14 14 15 15 15 16 16 16 16 16 16 16 16 15 15 15 14 14 14 13 13 13 12 12 12 11 10 9 8 8 7 6 7 7 7 7 8 8 8 9 9 9 9 10 11 11 12 13 13
23 24 24 25 24 22 21 21 21 19 17 16 15 15 15 13 12 12 13 14 13 13 16 19 19 14 12 14 16 17 17 16 15 14 14 14 15 15 15 15 15 15 16 17 17 17 17 17 17 16 16 16 16 15 15 15 14 14 14 14 13 13 12 11 10 10 9 8 8 8 8 8 8 9 9 9 9 9 9 10 11 11 12 12 13 13
25 24 24 24 25 23 21 21 21 19 19 18 16 15 16 16 13 12 12 14 14 14 15 18 20 17 14 15 17 19 19 17 16 15 15 15 15 16 15 15 15 15 16 17 17 17 17 17 17 17 17 17 17 16 16 16 16 16 15 15 15 14 14 13 12 11 10 10 9 9 8 9 9 9 9 9 10 10 10 11 11 11 12 13 14 14
26 27 24 23 25 24 23 22 21 20 20 20 17 15 15 14 13 13 13 14 15 14 14 15 16 17 16 15 16 19 19 17 17 17 16 16 15 16 15 15 14 14 15 17 17 17 17 17 18 18 18 18 18 17 17 17 17 17 17 17 16 16 15 14 13 12 11 11 10 10 9 9 10 10 10 10 10 10 11 11 11 12 13 14 14 15
25 26 27 26 24 25 25 23 22 21 20 21 20 17 16 14 13 14 14 12 13 14 14 15 15 15 16 16 17 19 19 18 19 19 18 17 16 16 16 15 14 13 14 15 16 16 16 17 18 18 19 19 19 19 18 18 18 18 18 18 17 17 16 15 14 13 13 12 12 11 10 10 10 10 10 10 10 10 11 12 12 13 14 14 15 15
25 25 28 27 24 24 25 25 23 21 20 21 20 18 18 17 15 14 15 13 13 14 15 15 15 14 15 16 18 19 19 18 18 18 18 18 18 17 15 14 14 13 13 14 16 17 17 17 18 18 19 19 19 19 19 19 18 18 18 18 18 17 17 16 15 15 14 13 12 11 11 11 10 11 11 11 11 11 11 12 13 14 15 15 15 16
25 26 26 26 25 24 24 23 22 20 21 21 20 19 19 19 16 14 15 15 14 14 15 16 16 15 15 16 17 16 16 15 14 14 16 18 18 17 16 15 15 14 14 15 16 17 17 18 18 19 19 19 20 20 20 19 19 19 19 19 19 18 18 17 16 16 15 14 13 13 12 12 11 11 12 11 11 11 12 13 14 14 15 16 16 16
24 25 25 25 25 24 23 21 22 22 21 20 21 22 21 18 16 14 14 14 13 13 16 16 16 16 15 15 15 14 14 13 12 14 16 17 18 18 18 17 16 15 14 15 15 15 16 17 18 19 19 20 20 20 20 20 20 20 19 19 19 19 19 18 18 17 16 15 15 14 14 13 13 13 13 12 12 12 13 14 14 15 16 16 16 16
22 23 24 25 25 25 24 22 22 22 21 20 22 23 21 19 17 15 14 13 12 13 14 15 15 15 14 14 14 12 13 14 14 14 15 15 16 17 17 17 17 16 16 15 15 14 14 16 18 19 19 20 21 21 21 21 20 20 20 20 19 19 20 19 19 18 17 17 16 16 15 15 14 14 14 14 13 13 13 14 14 15 16 16 16 16
23 21 23 25 24 23 22 22 23 23 22 21 20 20 21 21 19 18 16 14 13 13 13 14 16 15 14 15 14 14 15 15 15 15 15 14 15 16 16 17 18 17 16 15 14 14 14 15 17 18 19 20 21 21 21 21 21 21 21 21 20 20 20 20 20 19 19 18 18 17 17 16 16 15 15 15 14 14 14 14 14 15 15 16 16 17
24 21 21 23 23 23 22 23 25 25 23 22 20 19 20 21 21 20 19 17 15 14 14 14 15 15 15 15 15 16 16 16 15 15 15 15 16 16 16 16 17 17 15 14 14 14 15 15 17 18 19 20 20 21 21 21 21 22 22 22 22 21 21 21 21 20 20 19 19 19 18 18 17 17 16 16 16 15 15 15 15 15 15 16 16 17
25 24 23 21 21 23 25 25 25 24 24 24 23 21 21 20 19 19 19 18 17 15 14 14 15 16 16 15 14 16 16 15 16 15 15 15 16 16 16 16 16 16 15 14 14 14 14 15 16 18 19 19 20 20 21 21 22 22 22 22 23 23 22 22 22 21 21 21 20 20 19 19 18 18 18 17 17 16 16 16 15 15 16 16 17 17
26 26 25 23 21 22 26 27 25 23 24 25 25 23 21 20 18 17 18 19 19 17 16 15 15 17 17 16 16 16 14 14 14 14 14 15 16 16 16 16 16 16 15 15 15 14 14 14 15 17 18 18 19 20 21 21 21 22 22 23 23 23 24 24 23 22 22 22 21 21 20 20 19 19 19 18 18 17 17 17 16 16 17 17 18 18
28 25 25 25 24 23 24 25 24 23 23 25 25 23 22 21 19 17 17 17 18 17 17 15 14 16 17 17 16 14 14 14 14 14 13 14 16 16 16 16 16 15 16 16 15 15 15 15 16 17 17 18 19 20 21 21 22 22 23 23 24 24 25 25 24 24 23 23 23 22 22 21 20 20 20 19 19 18 18 17 17 17 17 18 19 19
29 27 25 24 23 23 22 24 24 22 22 25 25 24 23 23 21 19 16 15 15 16 15 14 14 16 15 13 12 12 13 14 14 14 14 14 15 16 15 15 15 16 16 16 15 15 15 16 16 17 17 18 19 20 21 21 22 22 23 23 24 25 25 25 25 25 25 24 24 23 23 22 21 21 21 20 20 19 18 18 17 17 17 19 19 20
30 29 27 24 21 21 21 22 24 24 24 25 25 24 24 23 22 20 17 14 14 15 15 13 14 16 14 11 11 12 12 13 13 14 15 16 16 15 15 14 15 16 16 16 16 16 15 15 15 16 18 18 19 20 20 21 22 22 23 23 24 25 25 25 25 26 26 25 25 24 23 22 22 22 22 21 20 20 19 18 17 17 18 19 20 20
30 30 29 27 24 22 22 22 25 26 25 24 25 25 24 23 22 21 19 18 18 16 15 14 15 16 15 13 13 13 13 13 14 15 16 16 16 16 15 14 15 16 17 17 17 16 15 15 16 17 18 18 19 20 21 22 23 23 23 24 25 25 25 26 26 26 27 26 25 25 24 23 22 22 22 21 20 20 19 18 17 18 19 20 20 20
28 30 30 30 29 26 24 23 24 25 25 24 24 25 25 24 23 21 20 21 21 18 16 17 16 16 17 16 16 15 15 14 15 15 15 16 16 16 15 15 16 16 17 18 17 16 16 16 17 18 18 19 20 21 21 22 23 24 24 25 26 26 26 26 26 26 28 27 26 26 25 24 23 22 21 21 20 19 19 18 18 18 19 20 20 19
25 30 30 30 31 30 26 24 24 25 26 26 25 25 24 23 22 22 22 22 20 18 19 20 17 17 19 20 19 18 17 17 17 16 16 16 17 17 17 17 17 17 17 17 17 17 17 17 18 19 20 21 22 22 22 23 24 25 26 27 27 27 27 27 27 27 28 28 27 27 26 25 23 22 20 20 20 20 20 19 19 19 19 19 19 19
24 28 30 29 29 30 26 23 25 26 26 26 25 25 25 23 23 24 24 22 20 19 20 20 20 20 21 21 21 20 19 19 19 19 19 18 18 18 17 17 17 17 17 18 19 18 18 19 20 20 21 22 23 23 23 24 24 25 26 27 28 28 28 28 28 28 28 28 28 26 24 24 24 22 20 21 21 21 20 19 19 19 19 19 19 19
25 27 29 29 28 28 26 24 24 25 25 26 27 26 24 24 23 24 24 23 23 22 21 20 22 23 22 21 22 21 20 20 20 19 18 18 18 18 17 17 17 18 18 19 20 20 20 21 21 21 22 23 23 24 24 25 25 25 26 27 27 28 29 29 29 28 28 28 28 25 24 24 25 23 21 22 22 20 19 19 19 19 19 19 19 19
27 27 27 29 27 26 26 23 22 23 23 25 27 25 22 21 20 20 21 21 21 21 20 20 23 23 22 20 19 19 18 18 18 18 18 18 18 18 18 18 19 19 19 20 20 21 21 21 21 21 22 23 24 25 25 25 25 25 25 26 28 29 29 30 30 29 27 27 27 26 25 25 26 25 24 23 22 20 19 19 19 19 19 19 20 20
25 26 24 25 25 24 24 23 21 21 19 19 21 21 20 18 16 15 16 17 18 18 17 18 22 24 22 19 17 17 18 19 19 19 19 18 19 18 18 18 19 19 19 20 20 20 20 20 21 22 23 24 25 26 25 25 25 25 27 28 28 28 29 29 29 27 26 27 27 27 26 25 26 26 25 23 22 21 20 20 20 20 20 20 20 21
22 26 24 23 23 22 22 22 22 20 17 15 17 19 19 18 17 15 13 14 16 17 16 17 20 21 19 18 18 19 19 20 20 19 18 18 17 17 17 17 17 17 18 18 19 19 19 20 21 23 24 25 26 25 25 25 26 27 28 28 27 27 27 27 27 27 27 28 27 26 25 25 26 26 25 23 23 22 21 20 20 20 20 21 21 21
20 24 26 24 22 21 21 21 21 21 20 18 17 17 16 17 17 16 14 13 14 16 17 18 19 18 15 16 18 19 19 19 18 18 17 16 15 16 16 16 15 15 16 17 18 19 20 22 22 23 23 23 24 24 23 24 26 27 27 27 27 27 27 27 27 26 26 26 26 26 26 26 26 25 24 23 23 22 22 21 21 21 21 21 21 21
17 21 25 25 24 22 20 20 20 21 23 21 19 16 14 14 15 15 14 14 13 14 15 15 16 17 16 15 15 17 16 16 16 17 16 16 16 16 16 16 15 15 16 17 19 21 22 22 21 21 21 20 21 21 21 22 23 23 23 24 25 26 26 26 24 23 23 24 26 27 27 26 23 22 22 22 22 23 22 21 21 21 21 21 21 21
17 19 21 23 24 23 21 19 19 20 21 20 20 18 15 13 13 12 12 13 13 12 13 13 14 15 16 16 17 18 17 17 16 17 18 18 17 17 17 17 17 17 19 20 20 21 21 20 19 19 19 19 19 20 21 21 22 22 22 23 23 24 25 24 22 21 21 22 23 22 21 21 21 20 21 21 22 22 21 21 21 22 22 21 21 22
18 19 19 20 21 23 22 20 19 18 17 17 18 19 19 17 16 14 13 13 14 13 13 13 13 13 13 15 17 18 18 17 16 17 19 19 18 18 18 18 19 19 20 20 19 18 18 18 18 18 18 18 19 19 20 20 20 21 21 22 22 23 23 22 21 21 21 20 19 20 20 21 22 22 22 21 21 21 21 21 22 22 22 22 22 23
18 20 21 20 20 21 22 21 19 18 17 18 19 19 19 19 19 17 15 15 16 16 15 16 16 15 15 15 16 16 15 15 17 19 20 20 20 19 18 19 20 20 19 19 18 17 17 16 17 17 17 18 18 18 18 19 20 20 20 20 20 20 21 21 20 21 22 21 22 23 23 23 23 23 23 23 22 22 22 22 22 23 22 23 23 24
15 18 20 20 20 20 21 21 21 21 19 18 19 18 17 18 19 18 16 16 18 19 19 18 18 18 18 17 18 17 15 17 20 22 22 21 20 20 19 19 19 19 18 18 18 18 17 17 17 17 18 18 18 19 19 19 20 20 20 20 19 19 20 21 21 21 23 23 23 23 23 23 23 23 23 23 23 23 23 23 23 23 23 23 24 25
15 16 18 19 19 19 20 21 21 21 20 19 18 18 18 18 17 16 16 17 18 19 17 16 16 17 17 17 18 18 18 20 22 23 22 20 18 18 19 20 20 20 20 20 20 19 19 18 17 18 18 19 19 19 19 19 19 20 20 20 20 21 21 21 22 22 23 23 22 23 23 23 23 23 23 24 24 24 24 24 24 24 24 24 25 26
18 17 17 19 20 19 20 20 20 20 20 20 20 20 20 19 16 16 19 19 19 18 14 12 13 15 15 16 17 19 21 22 22 22 21 19 18 18 19 20 20 20 21 21 21 20 19 19 19 19 19 19 19 19 20 20 20 20 21 21 22 23 22 22 23 22 22 22 22 23 23 23 22 23 23 24 25 25 25 25 24 24 24 25 26 26
19 18 17 19 20 20 20 20 20 20 20 20 21 21 21 19 17 17 19 20 20 17 13 11 13 14 14 15 17 19 21 21 21 21 20 18 18 18 19 20 20 21 22 22 21 21 20 20 20 20 19 19 19 20 20 21 21 22 22 22 23 24 23 22 22 22 22 22 23 23 23 23 24 24 25 26 26 26 25 24 23 23 24 24 25 26
20 19 18 19 19 19 19 19 20 21 21 21 21 21 20 19 20 20 19 19 19 17 13 13 14 13 14 15 16 17 18 18 19 19 19 18 18 19 20 21 21 21 22 22 22 22 21 21 21 20 20 20 20 20 21 21 22 22 22 23 23 23 22 22 22 22 23 23 23 23 23 24 25 25 24 25 24 23 22 22 22 22 23 25 26 26
21 20 20 19 19 19 18 19 20 22 22 20 19 20 20 19 20 20 19 18 18 17 15 15 15 15 15 16 16 17 17 17 18 18 19 19 20 21 21 21 21 20 20 21 22 22 22 21 21 21 21 21 21 21 21 22 22 22 23 23 22 22 22 22 22 22 23 24 24 24 24 24 23 22 22 22 23 23 24 25 25 25 25 26 26 26
24 23 22 20 19 18 19 19 20 21 21 18 14 15 15 16 17 17 17 17 17 17 16 15 16 16 16 16 17 18 19 19 19 19 19 20 20 21 21 20 20 20 21 21 22 22 22 22 22 22 22 22 22 22 22 22 21 21 22 22 21 21 22 22 22 23 23 23 23 23 23 22 21 21 22 23 25 26 27 28 27 26 27 27 27 28
23 23 22 21 21 19 19 19 20 19 17 15 13 13 13 13 14 15 15 15 16 16 16 16 16 17 16 15 16 16 16 16 16 17 18 19 19 19 20 20 21 22 22 23 23 23 24 23 23 23 23 23 22 22 21 21 21 21 21 20 20 19 20 20 21 21 21 20 20 20 19 19 20 22 24 25 26 27 27 26 26 27 27 28 28 29
21 20 19 20 21 20 19 20 21 19 16 14 14 14 14 13 13 13 13 15 16 16 15 15 16 16 17 16 16 16 16 16 16 17 18 18 19 20 21 21 22 23 23 24 24 24 25 24 24 24 23 22 21 20 20 20 20 20 20 19 19 19 19 20 19 18 18 18 19 19 21 22 23 23 24 24 25 25 25 25 26 27 28 28 28 29
19 18 18 18 18 19 20 22 21 18 16 15 15 15 15 15 14 14 13 14 14 14 15 15 15 16 17 18 18 18 18 19 18 18 19 19 20 21 22 22 23 24 24 25 25 25 24 23 23 22 21 20 20 19 19 20 21 20 19 19 19 19 19 19 19 19 20 20 19 20 21 22 22 22 22 23 23 24 25 26 27 27 27 28 28 28
17 17 18 18 17 17 19 21 20 17 15 15 15 16 16 15 15 14 13 13 13 13 14 14 14 15 16 17 19 19 19 20 19 19 20 21 21 22 23 24 24 25 25 25 24 24 23 22 21 20 19 19 19 19 19 20 20 20 19 19 19 20 20 20 20 20 20 20 19 19 20 20 21 21 22 23 24 25 26 27 27 27 27 26 27 27
17 18 19 19 19 19 20 21 20 18 17 17 16 16 16 15 14 13 13 13 13 14 15 15 15 16 16 17 19 19 20 21 22 21 22 22 23 23 24 24 24 24 24 23 23 22 21 20 19 18 18 18 19 19 19 19 19 19 19 20 21 22 21 20 19 18 18 19 19 19 19 20 21 22 23 25 26 26 26 26 26 26 25 25 26 26
17 18 19 18 19 20 20 20 19 18 18 18 17 17 17 17 15 15 15 15 16 17 17 17 18 19 19 18 19 20 21 23 24 24 24 24 24 23 23 23 23 23 23 23 22 21 20 19 19 18 17 17 18 17 18 18 19 19 19 20 21 21 20 18 18 19 19 20 20 20 21 22 23 24 25 26 26 26 25 24 24 24 24 25 25 26
Wind_Direction
198 204 209 209 205 200 198 189 182 183 188 197 194 188 190 191 201 204 201 206 194 192 206 199 195 199 197 203 204 190 185 187 195 194 184 183 186 188 191 191 194 199 200 199 197 196 195 196 195 194 197 198 196 197 199 202 206 208 210 214 220 227 232 237 239 243 251 257 267 276 282 287 291 294 295 294 296 298 298 298 298 298 299 302 302 303
201 208 213 208 203 201 197 190 186 188 198 209 205 198 197 197 205 207 202 203 197 201 215 203 195 205 206 207 207 199 198 203 203 200 193 191 192 195 195 194 197 201 203 201 199 196 194 194 193 193 196 197 197 199 202 204 207 209 212 214 219 226 229 234 237 241 250 259 272 283 289 294 299 302 301 300 301 300 301 301 301 302 301 301 302 303
208 213 214 208 203 202 202 198 196 199 206 214 213 205 207 208 210 216 212 207 207 211 213 206 204 213 215 211 209 206 209 214 207 200 196 195 197 201 200 198 199 201 203 202 199 197 195 193 193 194 195 197 199 202 205 208 210 212 214 216 220 223 225 229 233 239 250 263 277 290 299 304 307 308 307 306 304 303 305 305 303 300 298 298 300 302
211 214 212 207 205 205 208 207 206 211 216 219 215 210 214 215 210 220 221 212 216 217 208 210 216 221 221 221 220 213 211 217 212 206 204 202 202 206 207 204 203 202 202 201 200 201 200 198 198 199 199 201 203 206 209 211 213 214 215 216 217 220 222 225 228 235 247 263 285 301 310 314 314 313 311 307 305 304 305 305 302 300 299 300 301 302
213 214 208 205 208 209 210 213 215 220 222 221 217 215 220 221 218 223 219 210 216 219 210 208 217 223 221 224 229 224 221 224 218 213 215 215 213 213 213 209 207 206 205 205 205 207 207 207 208 207 207 207 209 212 212 212 213 213 214 214 215 217 219 219 220 227 240 263 287 304 312 316 318 320 319 314 309 308 308 309 309 307 305 303 303 304
214 214 208 205 209 210 211 216 220 220 221 224 222 218 219 223 226 225 213 203 205 215 216 207 211 231 231 228 230 229 229 228 221 219 223 223 222 221 217 213 211 211 211 210 211 213 214 215 214 214 213 213 215 215 214 214 212 212 212 213 214 214 214 215 219 227 245 265 281 294 302 309 315 320 323 320 317 315 314 315 316 315 312 308 308 307
213 213 210 207 210 212 213 219 220 216 220 228 224 218 221 226 229 222 210 204 209 221 222 215 221 235 232 234 234 226 225 225 222 224 226 226 228 227 220 215 214 214 215 215 216 217 217 217 217 217 216 216 217 216 215 214 213 213 214 213 214 214 214 217 224 235 250 266 279 290 298 306 313 316 318 319 319 318 318 318 318 317 314 311 310 309
210 211 212 210 211 214 216 219 217 213 221 229 222 218 221 222 222 215 207 209 221 228 221 220 231 230 227 236 234 224 225 226 226 228 230 230 229 227 222 217 215 215 216 217 218 219 219 219 219 219 220 219 219 217 216 216 215 216 217 216 216 218 220 224 230 240 253 268 279 289 297 306 312 315 315 315 316 317 316 316 316 315 313 311 312 312
210 210 212 212 214 217 218 218 214 213 223 226 222 219 217 217 224 217 209 214 223 222 216 222 231 231 235 239 230 224 227 228 228 229 231 230 226 226 223 218 217 218 219 220 220 221 221 221 221 221 221 220 221 220 219 219 218 219 220 219 219 222 226 230 235 243 254 268 279 288 295 302 309 313 315 315 316 317 317 317 318 318 316 314 315 315
213 211 211 212 216 219 218 217 215 217 222 221 218 216 215 222 230 220 215 217 218 221 222 223 226 234 244 239 223 222 228 231 234 234 234 231 228 228 225 220 220 221 222 223 223 224 223 222 222 222 221 221 222 223 222 222 221 221 223 223 223 227 231 234 239 246 254 263 275 285 290 294 301 307 312 314 316 317 318 320 320 319 317 316 317 316
216 215 213 214 217 218 217 216 216 215 216 219 222 222 227 237 235 227 225 218 217 232 231 223 223 230 245 240 224 223 232 235 237 239 239 235 231 231 229 224 225 226 226 225 225 226 224 223 223 223 223 223 223 224 224 224 224 224 226 226 227 231 234 238 243 249 253 260 271 281 287 291 295 299 303 307 310 313 314 316 317 317 317 319 319 316
218 217 217 216 216 216 216 218 219 217 215 218 225 226 230 238 233 229 231 220 223 241 237 225 223 226 240 243 232 233 241 240 237 239 239 235 231 230 228 224 224 228 230 228 226 224 223 223 223 223 224 224 224 225 225 226 226 227 228 229 230 234 237 241 246 250 254 258 266 276 283 288 292 294 296 300 305 308 310 312 315 318 320 322 321 318
218 218 218 216 216 215 216 220 222 222 218 218 222 222 223 229 227 226 228 224 230 241 238 227 222 227 240 244 236 236 243 244 242 241 236 231 228 227 226 223 222 227 230 229 227 224 225 226 225 225 225 226 226 226 226 227 228 229 231 231 233 236 239 243 247 251 254 257 262 271 278 283 288 290 292 297 302 305 308 310 313 316 319 321 320 319
219 220 218 217 218 215 217 222 222 221 219 216 218 220 218 218 221 226 229 230 234 240 240 232 228 237 249 251 243 239 243 246 245 241 234 228 224 222 224 222 220 222 223 223 222 221 225 229 228 226 226 228 228 227 227 229 230 231 233 234 235 237 240 243 246 250 253 257 261 267 273 277 283 287 289 293 298 302 306 308 309 311 314 316 317 318
218 220 217 216 218 216 217 221 219 219 219 216 215 218 219 216 218 227 228 229 234 240 242 238 237 244 251 255 249 241 242 245 243 240 232 226 223 222 223 224 221 221 220 220 221 224 230 233 231 229 227 228 229 227 228 231 232 233 234 235 236 237 240 242 245 249 252 256 260 264 268 272 277 284 288 290 293 299 303 306 308 310 311 313 314 315
220 223 219 217 219 218 219 220 217 216 219 220 217 216 220 218 218 228 231 230 234 240 243 240 241 248 255 262 257 245 246 246 238 233 226 222 223 223 225 226 226 226 226 225 227 232 236 235 233 230 229 229 229 228 229 231 232 234 235 236 236 238 240 242 245 247 251 254 257 261 266 269 273 279 285 288 290 294 300 304 307 309 311 312 312 313
220 226 221 217 220 220 219 216 213 213 217 221 219 218 221 218 216 225 236 239 235 238 246 243 247 259 264 267 264 252 249 244 230 225 223 221 219 220 225 227 227 229 229 229 231 234 236 235 233 231 229 229 229 228 229 230 231 233 235 237 237 238 240 242 245 247 249 252 255 259 264 268 272 276 281 285 288 291 297 302 305 308 311 312 312 314
219 227 224 218 220 222 218 214 214 215 214 216 222 224 222 222 223 225 233 241 236 238 249 246 248 258 258 259 262 253 241 235 227 222 222 222 219 220 225 225 226 228 230 232 235 236 237 235 232 231 230 229 229 229 229 231 232 234 236 237 237 238 240 243 246 248 249 251 254 257 261 266 271 275 278 282 286 290 295 300 303 306 310 312 313 315
219 226 226 219 219 221 218 216 219 221 219 218 225 225 217 218 226 227 228 233 233 238 248 249 251 254 249 249 253 246 237 233 227 222 220 221 221 223 225 224 226 228 232 236 238 240 241 238 234 232 231 231 231 231 232 232 235 237 238 239 239 240 241 243 246 248 250 251 253 256 260 264 269 273 276 279 283 287 290 296 300 304 309 312 314 315
217 221 226 222 220 217 217 218 219 222 223 221 222 222 219 221 225 226 228 229 230 237 245 251 256 253 247 248 248 244 239 231 227 224 222 222 222 223 224 224 228 231 235 239 240 241 242 240 236 232 232 232 232 232 233 234 236 238 240 241 242 242 243 244 246 248 250 250 252 254 257 262 266 271 274 277 281 283 285 290 296 301 306 311 313 314
217 219 224 225 222 218 218 218 216 219 220 218 216 219 223 226 225 226 232 232 232 237 243 248 255 254 248 248 248 245 241 234 229 225 225 226 224 222 221 223 230 235 239 242 244 244 242 239 236 233 233 234 233 234 235 236 238 240 242 244 243 244 244 245 247 248 250 250 251 252 255 259 263 268 272 274 278 281 282 286 293 298 303 308 311 312
216 218 221 224 225 223 221 219 217 218 218 214 215 219 220 218 218 224 235 239 235 235 237 241 252 256 252 251 251 245 239 235 230 225 228 228 221 220 223 226 232 238 242 245 246 245 243 241 238 236 235 235 236 236 237 238 240 242 244 245 245 246 246 247 247 248 250 251 251 252 254 257 261 265 268 271 275 279 280 284 289 293 298 305 309 309
215 217 219 224 228 225 221 220 219 218 217 214 217 220 219 217 217 221 230 235 233 234 237 239 249 256 256 255 251 239 231 229 225 222 225 224 219 223 228 231 235 238 242 247 247 247 246 244 241 239 238 237 238 239 239 241 242 243 245 246 247 247 247 248 248 249 251 251 250 251 253 256 259 262 265 268 273 276 278 282 286 289 295 302 306 306
213 217 218 222 229 228 224 225 223 220 216 216 219 221 220 221 221 221 224 227 228 234 236 239 248 253 255 257 246 226 219 223 224 221 222 223 226 230 233 235 237 238 243 248 249 250 249 246 243 242 241 240 241 242 243 244 244 245 246 247 248 248 248 248 249 250 251 250 250 251 252 255 257 259 262 266 271 274 276 280 283 286 293 300 303 304
213 216 214 215 222 225 225 226 223 220 218 218 220 220 220 221 220 221 225 225 230 236 232 233 244 246 247 252 245 228 217 220 226 224 224 228 232 234 236 237 235 237 244 248 249 249 248 245 245 244 243 243 245 246 247 247 247 247 247 248 249 249 249 249 250 250 251 252 250 250 251 254 256 258 260 263 269 273 275 279 281 285 292 299 302 303
213 215 214 213 215 217 219 221 219 216 217 219 219 217 220 221 219 222 225 225 231 238 233 231 235 238 241 242 241 235 224 224 231 229 228 230 230 232 237 237 236 240 246 247 247 247 247 248 248 247 247 247 249 250 250 250 250 249 249 250 250 251 250 250 250 250 251 253 252 250 250 253 256 257 259 263 267 272 275 278 280 285 292 298 301 301
215 216 216 215 216 217 220 224 221 214 214 218 218 218 223 225 223 224 226 227 230 233 234 236 230 227 233 234 235 235 228 228 235 233 232 233 231 233 238 240 242 246 249 247 246 249 251 252 253 251 251 251 252 254 254 253 253 252 252 252 252 252 252 251 250 250 251 252 252 251 249 250 253 255 260 263 265 269 274 277 279 284 292 298 299 299
215 216 215 214 216 219 223 227 223 216 216 219 219 220 225 227 223 223 226 229 229 228 235 241 232 222 228 232 232 233 232 235 238 237 236 236 234 236 241 243 244 247 248 246 247 252 254 256 257 257 256 256 257 257 258 258 256 255 254 254 253 253 252 251 250 250 251 251 250 249 246 246 249 254 261 264 264 267 272 274 277 284 292 296 297 297
214 215 215 213 217 220 224 227 222 217 219 221 221 222 225 226 224 223 226 227 225 229 237 239 231 227 231 234 234 235 237 238 238 236 234 234 235 238 242 243 243 245 246 246 250 256 259 261 262 262 262 261 260 260 260 260 259 258 257 256 255 253 252 251 250 251 252 252 251 249 246 247 249 254 261 263 263 267 270 271 276 284 290 294 296 297
214 216 214 212 217 220 221 223 219 217 220 221 221 224 226 228 228 226 227 227 228 236 239 232 229 234 237 237 239 242 243 240 236 234 232 233 235 238 239 241 244 247 249 250 256 260 262 264 265 265 266 265 263 261 262 262 261 261 260 259 257 255 254 253 253 252 252 253 254 252 249 250 250 253 261 264 263 265 267 269 276 284 289 292 294 296
215 217 213 211 214 218 219 219 216 214 218 219 220 222 224 227 230 229 230 231 233 239 239 229 229 238 243 243 245 245 242 238 234 232 233 236 236 237 239 242 246 250 253 255 261 266 267 267 267 268 270 269 266 264 263 263 263 264 263 261 258 256 255 255 254 255 254 254 255 255 253 253 251 254 262 263 260 263 265 269 277 284 288 291 293 295
213 212 210 207 209 214 215 212 208 209 213 216 218 220 218 218 220 223 227 228 227 230 233 231 232 240 246 246 244 240 235 233 233 234 238 241 240 240 242 245 247 251 255 259 265 269 271 270 269 271 273 273 270 267 265 264 263 264 264 262 260 259 258 256 255 255 254 253 254 254 254 254 252 256 262 259 255 261 266 269 278 284 286 288 291 293
209 206 205 202 204 211 213 208 204 206 210 216 220 219 216 214 213 216 225 230 226 224 226 232 237 242 245 244 240 236 233 234 237 239 240 241 242 243 244 246 249 254 258 263 267 270 272 274 274 274 276 277 274 270 266 263 263 264 264 263 263 262 260 259 258 256 254 254 254 253 254 255 256 258 259 254 254 261 266 271 278 281 283 286 289 292
212 206 206 204 201 207 211 207 204 207 210 212 214 212 213 214 212 213 223 231 232 229 231 238 242 239 235 237 236 232 231 234 236 237 236 236 240 243 243 246 251 256 261 265 269 273 275 277 278 279 280 281 278 273 269 267 267 268 268 267 266 263 261 260 259 256 255 254 254 254 255 257 260 260 256 253 256 263 268 273 277 278 281 286 288 291
213 206 206 207 204 204 206 204 205 210 212 214 214 212 211 211 208 211 222 233 236 233 234 242 248 242 233 225 219 217 222 227 227 228 231 235 241 243 243 246 250 255 261 267 273 278 280 280 282 285 286 285 282 277 274 273 273 273 273 273 272 270 268 266 263 260 259 257 256 256 254 254 260 262 256 255 260 265 269 272 274 277 282 285 288 292
206 202 202 205 206 205 203 202 206 210 214 218 218 216 219 220 217 217 226 239 243 238 232 232 240 244 237 225 215 212 215 220 224 230 234 239 245 245 245 249 254 260 267 272 276 279 279 278 280 283 284 283 283 281 277 274 272 271 271 273 273 273 273 271 265 263 263 262 258 255 252 254 261 263 260 259 262 265 268 271 274 279 282 285 288 292
202 202 202 203 206 206 202 203 207 210 216 222 221 221 225 227 225 220 221 232 241 243 238 229 227 234 233 226 220 217 217 223 232 241 244 244 247 249 251 255 260 267 273 275 278 279 278 277 277 279 282 284 285 284 279 275 273 271 271 271 270 270 270 266 261 257 256 255 251 247 251 260 264 263 262 262 263 265 268 271 275 279 281 284 287 291
207 207 205 203 206 207 205 207 212 211 214 220 224 227 229 227 224 223 225 233 243 251 250 237 227 227 228 225 222 219 222 231 238 245 250 251 252 257 260 262 266 270 272 274 277 279 279 280 280 281 283 285 285 283 280 278 276 274 274 272 269 268 266 262 257 251 249 250 249 248 254 262 265 264 263 263 263 266 268 271 276 279 281 284 287 291
212 212 209 206 208 208 206 209 213 212 214 221 227 232 231 224 223 229 235 239 246 255 254 242 233 233 233 231 229 229 234 240 242 247 253 254 256 259 261 263 268 270 270 272 274 275 278 280 282 281 281 282 282 281 279 278 277 276 275 271 267 266 264 260 254 250 251 252 250 250 256 262 264 264 262 261 264 267 269 273 277 280 282 286 289 294
216 215 212 208 208 209 206 209 213 214 218 225 230 236 238 232 229 234 237 239 246 252 248 238 237 241 240 237 239 243 244 243 244 249 252 254 257 260 260 263 268 269 271 273 274 275 277 277 277 277 279 280 281 280 278 278 278 277 274 271 268 266 264 260 256 254 254 251 249 251 257 261 263 263 261 263 266 268 271 275 278 280 282 286 291 295
217 216 214 209 209 211 210 211 217 218 223 231 238 244 246 241 236 233 230 234 243 247 240 232 235 241 241 239 242 245 246 245 245 248 252 255 260 263 264 266 269 271 274 274 274 275 275 274 274 276 278 280 280 280 279 278 278 278 277 273 270 268 265 262 259 256 253 252 253 255 258 260 262 263 263 265 267 268 272 276 278 280 284 287 292 296
215 217 218 215 213 215 214 216 221 223 228 238 244 246 245 240 234 231 229 232 238 237 233 234 237 238 238 238 240 242 244 247 249 251 254 258 261 264 266 267 269 273 276 274 272 272 273 273 274 276 278 279 279 278 278 278 277 279 278 275 272 270 267 264 260 256 254 256 259 260 259 261 265 266 266 267 268 268 271 275 279 284 287 290 293 297
215 216 219 217 215 216 218 222 225 227 237 246 244 241 242 238 231 229 229 231 232 230 230 236 238 237 238 239 241 243 245 249 252 253 255 259 263 267 269 269 270 273 273 271 270 271 272 273 275 277 278 278 278 277 277 276 277 278 277 275 273 272 269 265 260 258 258 260 262 262 262 265 269 269 269 270 268 267 271 278 283 288 292 293 296 298
219 218 217 216 217 217 218 221 224 229 240 247 241 237 240 238 232 231 231 232 233 234 236 240 243 245 245 245 247 250 252 254 253 254 256 260 265 268 268 268 269 270 270 269 270 272 274 276 277 278 277 276 276 277 276 276 278 279 277 275 275 273 270 266 262 261 261 262 264 265 265 268 269 268 268 271 271 273 279 285 288 290 293 295 297 296
223 222 220 221 222 220 217 220 226 232 240 243 236 234 237 235 232 231 231 233 237 241 243 245 247 250 250 251 254 258 259 257 255 256 259 261 263 264 263 263 266 268 270 272 272 273 274 276 277 275 274 275 276 276 276 277 278 278 276 276 276 273 269 266 265 264 263 264 268 267 265 265 265 265 268 272 276 278 283 286 288 290 293 296 296 295
223 224 224 223 224 223 222 225 229 233 239 241 235 233 234 234 234 233 232 237 243 247 248 246 245 245 247 250 254 256 255 253 253 257 260 261 263 264 264 266 269 272 273 274 274 274 276 277 276 274 274 275 276 276 277 278 277 275 275 277 276 271 269 270 268 262 259 264 268 266 262 264 269 271 273 276 279 281 282 284 287 290 293 295 296 295
221 223 224 223 223 224 225 229 231 231 236 240 238 237 238 238 237 236 237 241 245 248 249 248 247 248 250 252 253 253 254 256 258 260 261 263 265 268 269 272 273 274 274 275 275 276 277 276 275 275 275 276 277 277 278 277 276 276 277 276 275 273 274 276 269 259 258 266 268 264 264 269 274 276 277 279 282 283 284 286 289 292 294 295 295 295
221 222 222 223 225 223 223 227 230 230 233 237 237 240 243 240 237 238 242 246 248 250 252 253 254 257 257 256 256 257 261 265 265 265 266 268 270 272 274 276 276 275 276 275 275 276 276 276 275 274 275 276 276 276 277 277 277 276 275 275 275 275 276 273 267 262 264 269 268 266 268 272 275 277 279 282 283 284 286 288 292 294 295 295 295 295
221 223 223 221 221 221 224 228 230 230 236 240 238 239 242 239 236 238 243 246 250 255 257 258 259 261 262 262 261 262 265 268 268 269 271 273 274 275 277 277 277 276 276 275 275 275 275 274 272 272 273 274 274 274 276 277 275 274 274 275 277 277 274 271 267 266 267 267 268 269 271 272 274 277 281 283 284 285 288 291 293 294 295 295 295 295
224 226 228 225 223 226 230 231 231 232 236 240 238 235 237 239 241 244 247 249 251 255 259 262 263 264 267 269 267 266 268 269 270 271 273 274 275 276 277 278 277 276 276 276 275 274 273 271 270 270 272 274 274 274 276 276 274 274 275 277 278 277 274 270 268 268 267 268 270 272 272 273 276 279 282 284 285 287 290 293 295 295 294 293 294 295
224 225 228 226 227 231 232 229 229 232 235 239 240 238 239 243 247 250 253 255 256 257 260 263 265 266 269 271 271 272 273 273 272 273 274 275 276 276 277 277 277 276 275 273 272 271 270 269 269 270 272 275 277 276 276 276 275 275 276 279 281 279 274 270 271 271 270 270 271 272 273 276 278 281 283 285 287 288 290 292 294 294 293 293 293 294